Карточка аэропорта UNBB

Внимание!
Информация на этой странице в стадии наполнения.
Если вы не увидели какой-то информации, или заметили неточность - пожалуйста сообщите нам!
Спасибо!
Команда RU-STAFF
Название аэропортаМихайловка
Название аэропорта (англ.)Mikhaylovka
Превышение837 ft. (255.1 m.)
Координаты53°21.798', 83°32.382'
Высота перехода700m
Эшелон переходаFL050
Коды ответчика5301-5307
Зона ОрВДНовосибирск РПИ (UNNT)
Данные METARUNBB 160000Z 23003MPS CAVOK 19/16 Q1010 R24/CLRD66 NOSIG RMK QFE735
Проноз погоды (TAF)UNBB 152000Z 1521/1621 31003MPS 9999 BKN040CB TEMPO 1521/1602 0150 FG BKN001 BKN010CB TEMPO 1606/1615 26005G12MPS -TSRA
NOTAMshow/hide NOTAM
AWOS   TABLE

Информация о ВПП

ВПП Длина ВПП (м.) Покрытие Курс ВПП Частота ILS
062853Асфальтобетон59 
242853Асфальтобетон239108.7

Диспетчерские позиции




Спутниковое изображение